Time,TemperatureF,DewpointF,PressureIn,WindDirection,WindDirectionDegrees,WindSpeedMPH,WindSpeedGustMPH,Humidity,HourlyPrecipIn,Conditions,Clouds,dailyrainin,SolarRadiationWatts/m^2,SoftwareType,DateUTC
2015-07-30 00:08:00,66.5,65.0,29.87,West,270,0.0,0.0,96,0.00,,,0.00,0,weatherlink.com 1.10,2015-07-30 04:08:00,
2015-07-30 00:23:00,66.2,65.0,29.87,West,270,0.0,0.0,96,0.00,,,0.00,0,weatherlink.com 1.10,2015-07-30 04:23:00,
2015-07-30 00:38:00,65.9,65.0,29.87,West,270,0.0,0.0,96,0.00,,,0.00,0,weatherlink.com 1.10,2015-07-30 04:38:00,
2015-07-30 00:53:00,65.5,64.0,29.87,West,270,0.0,0.0,96,0.00,,,0.00,0,weatherlink.com 1.10,2015-07-30 04:53:00,
2015-07-30 01:08:00,65.4,64.0,29.87,West,270,0.0,0.0,96,0.00,,,0.00,0,weatherlink.com 1.10,2015-07-30 05:08:00,
2015-07-30 01:23:00,65.2,64.0,29.87,West,270,0.0,0.0,96,0.00,,,0.00,0,weatherlink.com 1.10,2015-07-30 05:23:00,
2015-07-30 01:38:00,65.0,64.0,29.87,WSW,258,0.0,3.0,96,0.00,,,0.00,0,weatherlink.com 1.10,2015-07-30 05:38:00,
2015-07-30 02:08:00,64.7,64.0,29.86,WSW,258,0.0,0.0,97,0.00,,,0.00,0,weatherlink.com 1.10,2015-07-30 06:08:00,
2015-07-30 02:23:00,64.5,64.0,29.86,WSW,258,0.0,0.0,97,0.00,,,0.00,0,weatherlink.com 1.10,2015-07-30 06:23:00,
2015-07-30 02:38:00,64.3,63.0,29.86,WSW,258,0.0,0.0,96,0.00,,,0.00,0,weatherlink.com 1.10,2015-07-30 06:38:00,
2015-07-30 02:53:00,64.2,63.0,29.86,WSW,258,0.0,0.0,96,0.00,,,0.00,0,weatherlink.com 1.10,2015-07-30 06:53:00,
2015-07-30 03:08:00,64.1,63.0,29.86,WSW,258,0.0,0.0,97,0.00,,,0.00,0,weatherlink.com 1.10,2015-07-30 07:08:00,
2015-07-30 03:23:00,63.9,63.0,29.86,WSW,258,0.0,0.0,97,0.00,,,0.00,0,weatherlink.com 1.10,2015-07-30 07:23:00,
2015-07-30 03:38:00,63.8,63.0,29.86,WSW,258,0.0,0.0,97,0.00,,,0.00,0,weatherlink.com 1.10,2015-07-30 07:38:00,
2015-07-30 03:53:00,63.8,63.0,29.86,WSW,258,0.0,0.0,97,0.00,,,0.00,0,weatherlink.com 1.10,2015-07-30 07:53:00,
2015-07-30 04:08:00,63.4,63.0,29.85,WSW,258,0.0,0.0,97,0.00,,,0.00,0,weatherlink.com 1.10,2015-07-30 08:08:00,
2015-07-30 04:23:00,63.5,63.0,29.85,WSW,258,0.0,0.0,97,0.00,,,0.00,0,weatherlink.com 1.10,2015-07-30 08:23:00,
2015-07-30 04:38:00,63.5,63.0,29.85,WSW,258,0.0,0.0,97,0.00,,,0.00,0,weatherlink.com 1.10,2015-07-30 08:38:00,
2015-07-30 04:53:00,63.4,63.0,29.85,WSW,258,0.0,0.0,97,0.00,,,0.00,0,weatherlink.com 1.10,2015-07-30 08:53:00,
2015-07-30 05:08:00,63.0,62.0,29.85,WSW,258,0.0,0.0,97,0.00,,,0.00,0,weatherlink.com 1.10,2015-07-30 09:08:00,
2015-07-30 05:23:00,62.9,62.0,29.85,WSW,258,0.0,0.0,97,0.00,,,0.00,0,weatherlink.com 1.10,2015-07-30 09:23:00,
2015-07-30 05:41:00,62.9,62.0,29.85,WSW,247,0.0,0.0,97,0.00,,,0.00,5,weatherlink.com 1.10,2015-07-30 09:41:00,
2015-07-30 05:53:00,62.8,62.0,29.85,WSW,247,0.0,0.0,97,0.00,,,0.00,12,weatherlink.com 1.10,2015-07-30 09:53:00,
2015-07-30 06:09:00,63.0,62.0,29.85,WSW,247,0.0,0.0,97,0.00,,,0.00,19,weatherlink.com 1.10,2015-07-30 10:09:00,
2015-07-30 06:23:00,63.3,63.0,29.85,WSW,247,0.0,0.0,97,0.00,,,0.00,26,weatherlink.com 1.10,2015-07-30 10:23:00,
2015-07-30 06:53:00,64.1,64.0,29.85,WSW,247,0.0,0.0,98,0.00,,,0.00,47,weatherlink.com 1.10,2015-07-30 10:53:00,
2015-07-30 07:09:00,64.6,64.0,29.85,WSW,247,0.0,0.0,98,0.00,,,0.00,60,weatherlink.com 1.10,2015-07-30 11:09:00,
2015-07-30 07:24:00,65.8,65.0,29.85,WSW,247,0.0,1.0,98,0.00,,,0.00,76,weatherlink.com 1.10,2015-07-30 11:24:00,
2015-07-30 07:38:00,66.5,66.0,29.85,ENE,58,0.0,0.0,97,0.00,,,0.00,221,weatherlink.com 1.10,2015-07-30 11:38:00,
2015-07-30 07:54:00,68.4,68.0,29.84,ESE,109,0.0,0.0,97,0.00,,,0.00,251,weatherlink.com 1.10,2015-07-30 11:54:00,
2015-07-30 08:09:00,70.4,69.0,29.84,SW,224,0.0,3.0,95,0.00,,,0.00,302,weatherlink.com 1.10,2015-07-30 12:09:00,
2015-07-30 08:24:00,72.5,70.0,29.84,SW,224,0.0,1.0,90,0.00,,,0.00,366,weatherlink.com 1.10,2015-07-30 12:24:00,
2015-07-30 08:39:00,74.1,71.0,29.83,SW,224,0.0,1.0,89,0.00,,,0.00,441,weatherlink.com 1.10,2015-07-30 12:39:00,
2015-07-30 08:54:00,76.0,72.0,29.83,WNW,284,0.0,2.0,86,0.00,,,0.00,473,weatherlink.com 1.10,2015-07-30 12:54:00,
2015-07-30 09:24:00,78.7,72.0,29.82,South,176,5.0,8.0,80,0.00,,,0.00,561,weatherlink.com 1.10,2015-07-30 13:24:00,
2015-07-30 09:39:00,80.2,73.0,29.81,SSE,151,1.0,5.0,79,0.00,,,0.00,461,weatherlink.com 1.10,2015-07-30 13:39:00,
2015-07-30 09:54:00,81.2,73.0,29.80,SSW,194,6.0,7.0,77,0.00,,,0.00,631,weatherlink.com 1.10,2015-07-30 13:54:00,
2015-07-30 10:09:00,82.0,74.0,29.80,South,174,4.0,7.0,76,0.00,,,0.00,700,weatherlink.com 1.10,2015-07-30 14:09:00,
2015-07-30 10:24:00,82.8,75.0,29.79,SSE,158,6.0,9.0,76,0.00,,,0.00,675,weatherlink.com 1.10,2015-07-30 14:24:00,
2015-07-30 10:39:00,82.4,74.0,29.79,SW,214,2.0,7.0,75,0.00,,,0.00,392,weatherlink.com 1.10,2015-07-30 14:39:00,
2015-07-30 10:54:00,84.5,75.0,29.79,SW,220,4.0,10.0,72,0.00,,,0.00,575,weatherlink.com 1.10,2015-07-30 14:54:00,
2015-07-30 11:09:00,82.4,74.0,29.79,South,176,10.0,11.0,76,0.00,,,0.00,469,weatherlink.com 1.10,2015-07-30 15:09:00,
2015-07-30 11:24:00,84.3,76.0,29.79,SE,142,7.0,15.0,75,0.00,,,0.00,977,weatherlink.com 1.10,2015-07-30 15:24:00,
2015-07-30 11:39:00,85.7,77.0,29.78,SSW,200,6.0,14.0,74,0.00,,,0.00,988,weatherlink.com 1.10,2015-07-30 15:39:00,
2015-07-30 11:55:00,85.7,77.0,29.77,South,177,6.0,13.0,74,0.00,,,0.00,369,weatherlink.com 1.10,2015-07-30 15:55:00,
2015-07-30 12:09:00,87.2,77.0,29.77,SW,224,6.0,14.0,72,0.00,,,0.00,905,weatherlink.com 1.10,2015-07-30 16:09:00,
2015-07-30 12:24:00,85.4,76.0,29.76,SSW,193,11.0,18.0,74,0.00,,,0.00,585,weatherlink.com 1.10,2015-07-30 16:24:00,
2015-07-30 12:39:00,86.0,77.0,29.75,SW,218,7.0,18.0,75,0.00,,,0.00,1049,weatherlink.com 1.10,2015-07-30 16:39:00,
2015-07-30 12:54:00,85.8,77.0,29.75,SSW,212,4.0,12.0,76,0.00,,,0.00,374,weatherlink.com 1.10,2015-07-30 16:54:00,
2015-07-30 13:10:00,87.3,78.0,29.75,WSW,251,1.0,10.0,74,0.00,,,0.00,425,weatherlink.com 1.10,2015-07-30 17:10:00,